Hebron, KY

4:57 AM EST on February 06, 2016 (GMT -0500)
Cincinnati-Northern KY International

Weather History for KCVG - January, 2014

Change the Weather History Date:

Sunday, January 19, 2014

  Actual Average Record
Temperature  
Mean Temperature 29 °F 31 °F  
Max Temperature 36 °F 39 °F 72 °F (1907)
Min Temperature 22 °F 23 °F -24 °F (1994)
Degree Days  
Heating Degree Days 36 34  
Month to date heating degree days 709 646  
Since 1 July heating degree days 2660 2565  
Cooling Degree Days 0 0  
Month to date cooling degree days 0 0  
Year to date cooling degree days 0 0  
Moisture  
Dew Point 24 °F    
Average Humidity 74    
Maximum Humidity 92    
Minimum Humidity 56    
Precipitation  
Precipitation 0.01 in 0.10 in 1.57 in (1907)
Month to date precipitation 2.37 1.86  
Year to date precipitation 2.37 1.86  
Snow  
Snow 0.10 in 0.20 in 5.50 in (1956)
Month to date snowfall 9.6 3.7  
Since 1 July snowfall 22.4 9.3  
Snow Depth 1.00 in    
Sea Level Pressure  
Sea Level Pressure 29.85 in    
Wind  
Wind Speed 13 mph (WSW)    
Max Wind Speed 22 mph    
Max Gust Speed 30 mph    
Visibility 8 miles    
Events Snow    
T = Trace of Precipitation, MM = Missing Value Source: NWS Daily Summary

Daily Weather History Graph

Daily Weather History Graph

Search for Another Location

Airport or City:

Trip Planner

Search our weather history database for the weather conditions in past years. The results will help you decide how hot, cold, wet, or windy it might be!

Date:

Astronomy

Jan. 19, 2014 Rise Set
Actual Time 7:54 AM EST 5:44 PM EST
Civil Twilight 7:25 AM EST 6:13 PM EST
Nautical Twilight 6:52 AM EST 6:46 PM EST
Astronomical Twilight 6:20 AM EST 7:18 PM EST
Moon 9:20 PM EST (1/19) 9:25 AM EST (1/19)
Length of Visible Light 10h 48m
Length of Day
9h 50m
Waning Gibbous, 89% of the Moon is Illuminated
Jan 19
Waning Gibbous
Jan 24
Last Quarter
Jan 30
New
Feb 6
First Quarter
Feb 14
Full

Hourly Weather History & Observations

Time (EST) Temp. Windchill Dew Point Humidity Pressure Visibility Wind Dir Wind Speed Gust Speed Precip Events Conditions
12:49 AM 28.4 °F 22.2 °F 24.8 °F 86% 29.75 in 2.0 mi SW 5.8 mph - 0.01 in Snow Light Snow
12:52 AM 28.9 °F 22.8 °F 25.0 °F 85% 29.77 in 1.0 mi SW 5.8 mph - 0.01 in Snow Light Snow
12:58 AM 28.4 °F 24.6 °F 24.8 °F 86% 29.75 in 3.0 mi SW 3.5 mph - 0.00 in Snow Light Snow
1:14 AM 28.4 °F 24.6 °F 24.8 °F 86% 29.74 in 9.0 mi SSW 3.5 mph - 0.00 in   Overcast
1:52 AM 30.0 °F 25.2 °F 28.0 °F 92% 29.77 in 4.0 mi WSW 4.6 mph - 0.00 in   Overcast
2:52 AM 30.0 °F 22.4 °F 28.9 °F 96% 29.80 in 4.0 mi West 8.1 mph - 0.00 in Snow Light Snow
3:16 AM 30.2 °F 19.8 °F 28.4 °F 93% 29.79 in 8.0 mi West 13.8 mph 17.3 mph 0.00 in   Overcast
3:52 AM 30.9 °F 20.2 °F 28.9 °F 92% 29.81 in 6.0 mi WNW 15.0 mph - 0.00 in   Overcast
4:33 AM 30.2 °F 20.8 °F 28.4 °F 93% 29.80 in 2.5 mi West 11.5 mph - N/A   Overcast
4:52 AM 30.0 °F 19.5 °F 28.9 °F 96% 29.84 in 2.5 mi WNW 13.8 mph - N/A   Overcast
5:07 AM 30.2 °F 18.5 °F 28.4 °F 93% 29.83 in 2.5 mi WNW 17.3 mph - N/A   Overcast
5:10 AM 30.2 °F 18.9 °F 28.4 °F 93% 29.83 in 6.0 mi WNW 16.1 mph - N/A   Overcast
5:23 AM 28.4 °F 15.8 °F 26.6 °F 93% 29.83 in 7.0 mi WNW 18.4 mph - N/A   Overcast
5:52 AM 28.9 °F 18.2 °F 24.1 °F 82% 29.87 in 9.0 mi WNW 13.8 mph - N/A   Overcast
6:06 AM 28.4 °F 16.6 °F 21.2 °F 74% 29.85 in 10.0 mi WNW 16.1 mph - N/A   Overcast
6:52 AM 27.0 °F 14.7 °F 21.9 °F 81% 29.91 in 10.0 mi WNW 16.1 mph - N/A   Overcast
7:52 AM 25.0 °F 13.1 °F 19.9 °F 81% 29.95 in 10.0 mi NW 13.8 mph - N/A   Overcast
8:52 AM 23.0 °F 9.6 °F 18.0 °F 81% 29.96 in 9.0 mi West 16.1 mph - N/A   Mostly Cloudy
9:52 AM 23.0 °F 10.1 °F 17.1 °F 78% 30.00 in 10.0 mi West 15.0 mph - N/A   Mostly Cloudy
10:52 AM 25.0 °F 14.8 °F 18.0 °F 75% 30.00 in 10.0 mi SW 10.4 mph 17.3 mph N/A   Mostly Cloudy
11:45 AM 28.4 °F 18.0 °F 19.4 °F 69% 29.96 in 10.0 mi SW 12.7 mph 17.3 mph N/A   Partly Cloudy
11:52 AM 28.0 °F 18.1 °F 19.0 °F 69% 29.98 in 10.0 mi SW 11.5 mph - N/A   Partly Cloudy
1:52 PM 32.0 °F 22.5 °F 19.9 °F 61% 29.92 in 10.0 mi SW 12.7 mph - N/A   Clear
2:52 PM 33.1 °F 23.0 °F 19.9 °F 59% 29.91 in 10.0 mi SW 15.0 mph 23.0 mph N/A   Clear
3:52 PM 34.0 °F 25.0 °F 21.9 °F 61% 29.90 in 10.0 mi SSW 12.7 mph - N/A   Clear
4:52 PM 34.0 °F 25.0 °F 21.0 °F 59% 29.88 in 10.0 mi SW 12.7 mph 19.6 mph N/A   Scattered Clouds
5:52 PM 33.1 °F 23.9 °F 21.0 °F 61% 29.88 in 10.0 mi SSW 12.7 mph - N/A   Scattered Clouds
6:52 PM 32.0 °F 22.1 °F 21.9 °F 66% 29.86 in 10.0 mi SSW 13.8 mph 23.0 mph N/A   Scattered Clouds
7:52 PM 33.1 °F 22.6 °F 23.0 °F 66% 29.82 in 10.0 mi SSW 16.1 mph 25.3 mph N/A   Scattered Clouds
8:52 PM 34.0 °F 23.8 °F 24.1 °F 67% 29.79 in 10.0 mi SSW 16.1 mph 27.6 mph N/A   Partly Cloudy
9:52 PM 36.0 °F 26.7 °F 24.1 °F 62% 29.81 in 10.0 mi SW 15.0 mph 20.7 mph N/A   Clear
10:52 PM 36.0 °F 27.5 °F 24.1 °F 62% 29.80 in 10.0 mi SSW 12.7 mph 19.6 mph N/A   Clear
11:52 PM 35.1 °F 26.4 °F 24.1 °F 64% 29.78 in 10.0 mi SSW 12.7 mph - N/A   Mostly Cloudy